Overview Statistics Trail Chart Weather Telemetry Raw packets
 

This is the latest recevied weather packets stored in our database for station/object N7WSS. If no packets are shown the sender has not sent any weather packets the latest 10 day(s).

<< 25 26 27 28 29 30 31 >>
Time Temp. Humidity Pressure Rain* Wind** Luminosity Snow
1788458565 30° C 51% 1015.2 hPa 0 mm - - -
1788458264 30.56° C 50% 1015.3 hPa 0 mm - - -
1788457964 30.56° C 50% 1015.2 hPa 0 mm - - -
1788457663 29.44° C 52% 1015.4 hPa 0 mm - - -
1788457359 30.56° C 50% 1015.3 hPa 0 mm - - -
1788457054 30° C 51% 1015.3 hPa 0 mm - - -
1788456750 29.44° C 54% 1015.3 hPa 0 mm - - -
1788456450 28.89° C 54% 1015.5 hPa 0 mm - - -
1788456145 29.44° C 54% 1015.4 hPa 0 mm - - -
1788455840 28.89° C 54% 1015.4 hPa 0 mm - - -
1788455536 28.89° C 55% 1015.6 hPa 0 mm - - -
1788455234 28.33° C 55% 1015.3 hPa 0 mm - - -
1788454941 28.33° C 56% 1015.4 hPa 0 mm - - -
1788454628 28.33° C 57% 1015.4 hPa 0 mm - - -
1788454323 27.78° C 57% 1015.4 hPa 0 mm - - -
1788454017 27.78° C 57% 1015.5 hPa 0 mm - - -
1788453714 27.78° C 58% 1015.4 hPa 0 mm - - -
1788453413 27.78° C 57% 1015.5 hPa 0 mm - - -
1788453110 28.33° C 58% 1015.3 hPa 0 mm - - -
1788452805 28.33° C 57% 1015.6 hPa 0 mm - - -
1788452501 27.78° C 58% 1015.5 hPa 0 mm - - -
1788452196 27.78° C 59% 1015.7 hPa 0 mm - - -
1788451892 27.22° C 60% 1015.5 hPa 0 mm - - -
1788451587 27.22° C 61% 1015.5 hPa 0 mm - - -
1788451281 27.22° C 62% 1015.5 hPa 0 mm - - -

* Rain latest hour (hover to see other rain measurements)
** Current wind speed in m/s (hover to see current wind gust speed)